カタログに戻る

DELTA 1 DEB

運用中LEO
NORAD 10250·DEBRIS·🇺🇸 United States

打ち上げ Jul 14, 1977 から Cape Canaveral Space Force Station

Loading…

次のパス (今後24時間)

TLE

最新Source: Space-Track

元期: Sep 14, 2026, 14:35 UTC

1 10250U 77065CB  26257.60814746  .00001942  00000-0  35710-3 0  9996
2 10250  29.0817  25.8063 0529601 267.3329  86.6541 13.98979958320672

AllMySatでDELTA 1 DEBをリアルタイム追跡

Download on the App Store